Flag for U.S.A. Weather past 2 weeks in Owensboro, Kentucky, U.S.A.

Now
79 °F

Partly sunny.


Feels Like: 80 °F
Forecast: 59 / 79 °F
Wind: 6 mph from East

Location: Owensboro / Daviess

Current Time: Apr 18, 2015 at 2:27:54 PM

Latest Report: Apr 18, 2015 at 1:56 PM


Visibility: 10 mi

Pressure: 29.96 "Hg

Humidity: 45%

Dew point: 56 °F

Location of OwensboroLocation

Historic Weather in Owensboro — Graph

°F

Owensboro temperature yesterday

Maximum temperature yesterday: 75 °F (at 1:56 PM)
Minimum temperature yesterday: 59 °F (at 3:01 AM)
Average temperature yesterday: 67 °F

Past Weeks' High & Low Weather Summary

 TemperatureHumidityPressure
High82 °F (Apr 9, 2:56 PM)100% (Apr 7, 2:56 AM)30.43 "Hg (Apr 7, 2:56 AM)
Low36 °F (Apr 5, 5:56 AM)23% (Apr 5, 2:56 PM)29.74 "Hg (Apr 9, 10:56 PM)
Average62 °F71%30.07 "Hg
* Reported Apr 3 12:56 PM — Apr 18 12:56 PM, Owensboro, Weather by CustomWeather, © 2015

Note: Actual official high and low records may vary slightly from our data, if they occured in-between our weather recording intervals... More about our weather records

Advertising

Owensboro weather history for previous 24 hours

 ConditionsComfort  
Time TempWeatherWind HumidityBarometerVisibility
12:56 PM
Sat, Apr 18
78 °FPartly sunny.7 mph47%29.98 "Hg10 mi
11:56 AM77 °FScattered clouds.6 mph52%30.01 "Hg7 mi
10:56 AM74 °FSunny.7 mph62%30.01 "Hg5 mi
9:56 AM71 °FSunny.8 mph73%30.01 "Hg4 mi
8:56 AM64 °FFog.6 mph90%30.01 "Hg3 mi
7:56 AM59 °FFog.No wind100%30.03 "Hg1 mi
6:56 AM56 °FFog.No wind100%30.03 "Hg0 mi
5:59 AM55 °FFog.No wind100%30.03 "Hg1 mi
4:56 AM56 °FFog.No wind100%30.00 "Hg5 mi
3:56 AM57 °FFog.No wind100%30.01 "Hg3 mi
2:56 AM59 °FFog.No wind96%30.01 "Hg4 mi
1:56 AM60 °FFog.No wind97%30.01 "Hg4 mi
12:56 AM61 °FFog.No wind96%30.03 "Hg4 mi
11:56 PM
Fri, Apr 17
62 °FClear.No wind97%30.04 "Hg7 mi
10:56 PM61 °FFog.6 mph96%30.03 "Hg6 mi
9:56 PM66 °FClear.No wind87%30.02 "Hg9 mi
8:56 PM67 °FClear.No wind84%30.02 "Hg10 mi
7:56 PM71 °FClear.No wind73%30.01 "Hg10 mi
6:56 PM74 °FSunny.3 mph64%29.99 "Hg10 mi
5:56 PM75 °FPassing clouds.6 mph64%30.00 "Hg10 mi
4:56 PM75 °FScattered clouds.7 mph64%30.01 "Hg10 mi
3:56 PM74 °FPartly sunny.8 mph69%30.01 "Hg7 mi
2:56 PM75 °FPartly sunny.6 mph60%30.03 "Hg7 mi
Weather by CustomWeather, © 2015

See weather overviewHow to use our weather pages